• In Hungary
  • List of Countries
  • For 7 days
  • Water Temperature
  • Satellite Maps
  • Weather Map
  • News
  • Weather Widgets
  • user-avatar
    Login

    Hourly Weather Motherwell

    Today, 18 November, Saturday

    Time Temperature Precipitation Wind Pressure Humidity
    00:00 +5°C° 0 mm 7 mps 753 mmHg 78%
    01:00 +5°C° 0.1 mm 7 mps 753 mmHg 78%
    02:00 +4°C° 0.1 mm 7 mps 753 mmHg 78%
    03:00 +4°C° 0.1 mm 6 mps 752 mmHg 78%
    04:00 +4°C° 0 mm 6 mps 753 mmHg 78%
    05:00 +3°C° 0 mm 5 mps 753 mmHg 78%
    06:00 +3°C° 0 mm 5 mps 753 mmHg 79%
    07:00 +2°C° 0 mm 5 mps 753 mmHg 79%
    08:00 +3°C° 0 mm 4 mps 753 mmHg 79%
    09:00 +3°C° 0 mm 4 mps 753 mmHg 79%
    10:00 +4°C° 0 mm 4 mps 754 mmHg 75%
    11:00 +5°C° 0 mm 5 mps 754 mmHg 71%
    12:00 +5°C° 0 mm 5 mps 754 mmHg 66%
    13:00 +5°C° 0 mm 5 mps 754 mmHg 68%
    14:00 +5°C° 0 mm 5 mps 754 mmHg 69%
    15:00 +4°C° 0 mm 4 mps 754 mmHg 71%
    16:00 +4°C° 0 mm 4 mps 754 mmHg 73%
    17:00 +3°C° 0 mm 4 mps 754 mmHg 76%
    18:00 +1°C° 0 mm 4 mps 755 mmHg 78%
    19:00 +2°C° 0 mm 3 mps 755 mmHg 79%
    20:00 +1°C° 0 mm 3 mps 755 mmHg 79%
    21:00 +1°C° 0 mm 3 mps 755 mmHg 80%
    22:00 +1°C° 0 mm 3 mps 755 mmHg 81%
    23:00 +1°C° 0 mm 3 mps 755 mmHg 81%

    Tomorrow, 19 November, Sunday

    Time Temperature Precipitation Wind Pressure Humidity
    00:00 +1°C° 0 mm 3 mps 755 mmHg 82%
    01:00 +1°C° 0 mm 3 mps 755 mmHg 83%
    02:00 +1°C° 0 mm 2 mps 755 mmHg 84%
    03:00 +1°C° 0 mm 2 mps 755 mmHg 85%
    04:00 +1°C° 0 mm 2 mps 755 mmHg 86%
    05:00 +1°C° 0 mm 2 mps 756 mmHg 87%
    06:00 +1°C° 0 mm 2 mps 756 mmHg 87%
    07:00 +2°C° 0 mm 2 mps 756 mmHg 87%
    08:00 +3°C° 0 mm 1 mps 756 mmHg 87%
    09:00 +3°C° 0 mm 1 mps 756 mmHg 86%
    10:00 +4°C° 0 mm 1 mps 756 mmHg 82%
    11:00 +5°C° 0 mm 1 mps 756 mmHg 78%
    12:00 +6°C° 0 mm 1 mps 756 mmHg 74%
    13:00 +6°C° 0 mm 1 mps 755 mmHg 76%
    14:00 +6°C° 0 mm 1 mps 755 mmHg 79%
    15:00 +5°C° 0 mm 2 mps 754 mmHg 81%
    16:00 +4°C° 0.1 mm 2 mps 754 mmHg 83%
    17:00 +4°C° 0.1 mm 2 mps 753 mmHg 86%
    18:00 +4°C° 0.1 mm 2 mps 753 mmHg 88%
    19:00 +4°C° 0.4 mm 2 mps 752 mmHg 89%
    20:00 +3°C° 0.4 mm 3 mps 751 mmHg 91%
    21:00 +3°C° 0.4 mm 3 mps 750 mmHg 92%
    22:00 +4°C° 1.4 mm 3 mps 749 mmHg 93%
    23:00 +4°C° 1.4 mm 4 mps 748 mmHg 94%

    Day after tomorrow, 20 November, Monday

    Time Temperature Precipitation Wind Pressure Humidity
    00:00 +5°C° 1.4 mm 4 mps 747 mmHg 95%
    01:00 +5°C° 1.8 mm 4 mps 746 mmHg 96%
    02:00 +6°C° 1.8 mm 4 mps 745 mmHg 96%
    03:00 +6°C° 1.8 mm 4 mps 744 mmHg 97%
    04:00 +7°C° 0.5 mm 4 mps 744 mmHg 96%
    05:00 +7°C° 0.5 mm 4 mps 743 mmHg 96%
    06:00 +7°C° 0.5 mm 4 mps 743 mmHg 96%
    07:00 +8°C° 0.9 mm 4 mps 742 mmHg 95%
    08:00 +8°C° 0.9 mm 4 mps 742 mmHg 95%
    09:00 +9°C° 0.9 mm 5 mps 742 mmHg 94%
    10:00 +9°C° 0.6 mm 5 mps 742 mmHg 94%
    11:00 +10°C° 0.6 mm 4 mps 742 mmHg 94%
    12:00 +10°C° 0.6 mm 4 mps 743 mmHg 94%
    13:00 +10°C° 0.1 mm 4 mps 743 mmHg 95%
    14:00 +10°C° 0.1 mm 3 mps 744 mmHg 95%
    15:00 +10°C° 0.1 mm 3 mps 744 mmHg 95%
    16:00 +9°C° 0.2 mm 3 mps 744 mmHg 95%
    17:00 +9°C° 0.2 mm 2 mps 745 mmHg 96%
    18:00 +8°C° 0.2 mm 2 mps 745 mmHg 97%
    19:00 +8°C° 0.2 mm 2 mps 746 mmHg 97%
    20:00 +8°C° 0.2 mm 2 mps 746 mmHg 97%
    21:00 +8°C° 0.2 mm 2 mps 746 mmHg 97%
    22:00 +8°C° 0.1 mm 2 mps 746 mmHg 97%
    23:00 +8°C° 0.1 mm 2 mps 746 mmHg 97%

    21 November, Tuesday

    Time Temperature Precipitation Wind Pressure Humidity
    00:00 +8°C° 0.1 mm 2 mps 746 mmHg 97%
    01:00 +8°C° 0.5 mm 2 mps 745 mmHg 97%
    02:00 +8°C° 0.5 mm 2 mps 745 mmHg 97%
    03:00 +8°C° 0.5 mm 3 mps 744 mmHg 97%
    04:00 +9°C° 0.2 mm 3 mps 743 mmHg 96%
    05:00 +8°C° 0.2 mm 4 mps 743 mmHg 96%
    06:00 +10°C° 0.2 mm 4 mps 742 mmHg 96%
    07:00 +9°C° 0.4 mm 5 mps 741 mmHg 94%
    08:00 +10°C° 0.4 mm 6 mps 740 mmHg 93%
    09:00 +10°C° 0.4 mm 7 mps 740 mmHg 91%
    10:00 +10°C° 0.5 mm 7 mps 739 mmHg 91%
    11:00 +11°C° 0.5 mm 8 mps 739 mmHg 91%
    12:00 +11°C° 0.5 mm 8 mps 739 mmHg 91%
    13:00 +11°C° 0.8 mm 8 mps 738 mmHg 91%
    14:00 +11°C° 0.8 mm 8 mps 738 mmHg 91%
    15:00 +11°C° 0.8 mm 8 mps 737 mmHg 90%
    16:00 +12°C° 0.3 mm 8 mps 737 mmHg 90%
    17:00 +12°C° 0.3 mm 9 mps 736 mmHg 90%
    18:00 +12°C° 0.3 mm 9 mps 736 mmHg 89%
    19:00 +12°C° 0.6 mm 9 mps 735 mmHg 90%
    20:00 +12°C° 0.6 mm 8 mps 735 mmHg 91%
    21:00 +12°C° 0.6 mm 8 mps 735 mmHg 91%
    22:00 +12°C° 1 mm 8 mps 735 mmHg 92%
    23:00 +12°C° 1 mm 7 mps 734 mmHg 92%

    22 November, Wednesday

    Time Temperature Precipitation Wind Pressure Humidity
    00:00 +12°C° 1 mm 7 mps 734 mmHg 93%
    01:00 +11°C° 1.3 mm 7 mps 734 mmHg 93%
    02:00 +11°C° 1.3 mm 7 mps 733 mmHg 93%
    03:00 +11°C° 1.3 mm 7 mps 733 mmHg 93%
    04:00 +11°C° 1.9 mm 6 mps 733 mmHg 93%
    05:00 +12°C° 1.9 mm 5 mps 733 mmHg 94%
    06:00 +11°C° 1.9 mm 4 mps 732 mmHg 95%
    07:00 +11°C° 1 mm 4 mps 733 mmHg 95%
    08:00 +11°C° 1 mm 3 mps 733 mmHg 95%
    09:00 +11°C° 1 mm 3 mps 733 mmHg 96%
    10:00 +11°C° 0.5 mm 3 mps 733 mmHg 95%
    11:00 +10°C° 0.5 mm 3 mps 733 mmHg 94%
    12:00 +10°C° 0.5 mm 2 mps 733 mmHg 94%
    13:00 +10°C° 1.5 mm 3 mps 733 mmHg 94%
    14:00 +9°C° 1.5 mm 3 mps 732 mmHg 94%
    15:00 +9°C° 1.5 mm 3 mps 732 mmHg 94%
    16:00 +8°C° 1.2 mm 3 mps 733 mmHg 94%
    17:00 +7°C° 1.2 mm 3 mps 733 mmHg 93%
    18:00 +7°C° 1.2 mm 3 mps 734 mmHg 92%
    19:00 +5°C° 0.5 mm 3 mps 734 mmHg 90%
    20:00 +6°C° 0.5 mm 2 mps 735 mmHg 89%
    21:00 +6°C° 0.5 mm 2 mps 735 mmHg 88%
    22:00 +4°C° 0.8 mm 3 mps 735 mmHg 88%
    23:00 +4°C° 0.8 mm 3 mps 735 mmHg 88%

    23 November, Thursday

    Time Temperature Precipitation Wind Pressure Humidity
    00:00 +4°C° 0.8 mm 3 mps 734 mmHg 88%
    01:00 +4°C° 1.5 mm 4 mps 734 mmHg 90%
    02:00 +4°C° 1.5 mm 4 mps 733 mmHg 92%
    03:00 +3°C° 1.5 mm 5 mps 732 mmHg 94%
    04:00 +5°C° 1.1 mm 5 mps 731 mmHg 94%
    05:00 +5°C° 1.1 mm 5 mps 730 mmHg 94%
    06:00 +4°C° 1.1 mm 6 mps 728 mmHg 94%
    07:00 +6°C° 1.4 mm 5 mps 727 mmHg 94%
    08:00 +6°C° 1.4 mm 5 mps 727 mmHg 94%
    09:00 +7°C° 1.4 mm 5 mps 726 mmHg 94%
    10:00 +7°C° 1 mm 5 mps 724 mmHg 94%
    11:00 +8°C° 1 mm 5 mps 723 mmHg 93%
    12:00 +8°C° 1 mm 5 mps 721 mmHg 92%
    13:00 +8°C° 0.5 mm 4 mps 720 mmHg 93%
    14:00 +10°C° 0.5 mm 3 mps 718 mmHg 93%
    15:00 +10°C° 0.5 mm 3 mps 716 mmHg 94%
    16:00 +9°C° 0.4 mm 3 mps 717 mmHg 94%
    17:00 +8°C° 0.4 mm 4 mps 717 mmHg 95%
    18:00 +8°C° 0.4 mm 5 mps 717 mmHg 95%
    19:00 +6°C° 0.5 mm 7 mps 718 mmHg 90%
    20:00 +5°C° 0.5 mm 9 mps 719 mmHg 86%
    21:00 +3°C° 0.5 mm 11 mps 720 mmHg 81%
    22:00 +2°C° 0.1 mm 11 mps 719 mmHg 80%
    23:00 +2°C° 0.1 mm 11 mps 719 mmHg 79%
    Show more